FW2442 Weather Reports


time (UTC)temp
C
wind
direction
speed
KPH
gust
KPH
rain 1hr
cm
rain 24hr
cm
rain mn
cm
humidity
%
barometer
mb
20260508235524 13 0.0 0.0 0.00 1.09 0.00 98 1017.5
20260508234524 13 0.0 0.0 0.00 1.09 0.00 98 1017.5
20260508233524 13 0.0 0.0 0.00 1.09 0.00 98 1017.5
20260508232522 13 0.0 0.0 0.00 1.09 0.00 98 1017.5
20260508231522 13 0.0 0.0 0.00 1.09 0.00 98 1017.5
20260508230522 14 316 1.6 1.6 0.00 1.09 0.00 98 1017.5
20260508225521 14 0.0 1.6 0.00 1.09 0.00 98 1017.5
20260508224520 14 0.0 0.0 0.00 1.09 0.00 97 1017.6
20260508223520 13 0.0 0.0 0.00 1.09 0.00 97 1017.6
20260508222520 13 0.0 0.0 0.00 1.09 0.00 97 1017.5
20260508221518 13 0.0 0.0 0.00 1.09 0.00 97 1017.6
20260508220520 13 0.0 0.0 0.00 1.09 0.00 97 1017.6
20260508215517 13 0.0 0.0 0.00 1.09 0.00 97 1017.7
20260508214537 14 0.0 0.0 0.00 1.09 0.00 97 1017.6
20260508213537 14 0.0 0.0 0.00 1.09 0.00 97 1017.5
20260508212537 14 0.0 0.0 0.00 1.09 0.00 97 1017.4
20260508211533 14 0.0 0.0 0.00 1.09 0.00 97 1017.4
20260508210525 15 0.0 0.0 0.00 1.09 0.00 97 1017.4
20260508205525 15 0.0 0.0 0.00 1.09 1.09 97 1017.3
20260508204525 15 6 1.6 1.6 0.00 1.09 1.09 97 1017.2
20260508203526 15 0.0 0.0 0.00 1.09 1.09 97 1017.3
20260508202525 15 0.0 0.0 0.00 1.09 1.09 97 1017.4
20260508201525 15 0.0 0.0 0.00 1.09 1.09 97 1017.5
20260508200525 15 0.0 0.0 0.00 1.09 1.09 97 1017.5
20260508195524 15 0.0 0.0 0.00 1.09 1.09 96 1017.5
20260508194545 15 0.0 0.0 0.00 1.09 1.09 96 1017.6
20260508193526 15 0.0 0.0 0.00 1.09 1.09 96 1017.5
20260508192524 15 0.0 0.0 0.00 1.09 1.09 96 1017.4
20260508191525 15 348 0.0 1.6 0.00 1.09 1.09 95 1017.4
20260508190525 15 0.0 0.0 0.00 1.09 1.09 95 1017.2
20260508185526 15 0.0 0.0 0.00 1.09 1.09 95 1017.1
20260508184525 15 338 0.0 1.6 0.00 1.09 1.09 95 1017.0
20260508183525 15 0.0 0.0 0.00 1.09 1.09 94 1016.8
20260508182524 15 0.0 0.0 0.00 1.09 1.09 94 1016.8
20260508181546 15 0.0 0.0 0.00 1.09 1.09 94 1016.6
20260508180526 15 0.0 0.0 0.00 1.09 1.09 93 1016.5
20260508175524 16 77 0.0 1.6 0.00 1.09 1.09 93 1016.4
20260508174527 16 132 0.0 1.6 0.00 1.09 1.09 93 1016.3
20260508173546 16 172 0.0 1.6 0.00 1.09 1.09 92 1016.3
20260508172526 16 342 1.6 1.6 0.00 1.09 1.09 91 1016.2
20260508171524 16 0.0 0.0 0.00 1.09 1.09 90 1016.0
20260508170527 16 0.0 0.0 0.00 1.09 1.09 90 1016.0
20260508165605 16 0.0 0.0 0.00 1.09 1.09 90 1015.9
20260508164526 16 148 0.0 1.6 0.00 1.09 1.09 90 1016.1
20260508163526 16 176 1.6 1.6 0.00 1.09 1.09 89 1016.2
20260508162526 17 163 1.6 1.6 0.00 1.09 1.09 88 1016.1
20260508161545 17 177 1.6 1.6 0.00 1.09 1.09 88 1016.0
20260508160525 17 131 0.0 1.6 0.00 1.09 1.09 86 1015.8
20260508155525 17 118 0.0 1.6 0.00 1.09 1.09 85 1015.8
20260508154525 17 0.0 0.0 0.00 1.09 1.09 85 1015.6
20260508153525 17 93 0.0 1.6 0.00 1.09 1.09 87 1015.6
20260508152525 16 51 0.0 1.6 0.00 1.09 1.09 88 1015.5
20260508151525 16 87 0.0 1.6 0.00 1.09 1.09 90 1015.7
20260508150525 16 68 0.0 1.6 0.00 1.09 1.09 91 1015.8
20260508145525 16 80 1.6 3.2 0.03 1.09 1.09 92 1015.8
20260508144525 16 34 1.6 3.2 0.05 1.09 1.09 91 1015.8
20260508143525 16 29 1.6 1.6 0.20 1.09 1.09 91 1015.8
20260508142525 15 30 1.6 3.2 0.53 1.09 1.09 90 1015.8
20260508141525 15 42 1.6 3.2 1.09 1.09 1.09 90 1015.9
20260508140525 15 29 1.6 3.2 1.09 1.09 1.09 92 1015.9
20260508135525 15 14 1.6 1.6 1.07 1.07 1.07 93 1015.9
20260508134545 15 340 3.2 9.7 1.04 1.04 1.04 93 1015.9
20260508133525 15 325 6.4 14.5 0.89 0.89 0.89 93 1016.4
20260508132525 15 312 17.7 30.6 0.56 0.56 0.56 90 1016.3
20260508131525 16 290 25.7 35.4 0.00 0.00 0.00 85 1015.8
20260508130546 18 284 29.0 51.5 0.00 0.00 0.00 77 1015.4
20260508125525 22 0.0 0.0 0.00 0.00 0.00 63 1014.4
20260508124526 22 0.0 0.0 0.00 0.00 0.00 63 1014.2
20260508123525 23 128 0.0 3.2 0.00 0.00 0.00 60 1014.2
20260508122524 23 105 1.6 4.8 0.00 0.00 0.00 59 1014.3
20260508121523 23 114 1.6 6.4 0.00 0.00 0.00 60 1014.3
20260508120543 23 105 3.2 8.0 0.00 0.00 0.00 60 1014.5
20260508115523 23 127 3.2 11.3 0.00 0.00 0.00 60 1014.5
20260508114521 23 131 1.6 3.2 0.00 0.00 0.00 59 1014.5
20260508113520 23 95 1.6 8.0 0.00 0.00 0.00 61 1014.6
20260508112519 22 108 1.6 4.8 0.00 0.00 0.00 63 1014.7
20260508111538 22 101 0.0 1.6 0.00 0.00 0.00 62 1014.7
20260508110518 22 156 0.0 8.0 0.00 0.00 0.00 62 1014.7
20260508105517 22 105 3.2 9.7 0.00 0.00 0.00 63 1014.9
20260508104517 22 136 0.0 3.2 0.00 0.00 0.00 64 1014.8
20260508103519 22 128 1.6 9.7 0.00 0.00 0.00 63 1014.9
20260508102517 21 155 1.6 6.4 0.00 0.00 0.00 64 1015.0
20260508101517 21 123 3.2 11.3 0.00 0.00 0.00 64 1015.1
20260508100517 22 137 1.6 4.8 0.00 0.00 0.00 64 1015.3
20260508095517 21 92 1.6 8.0 0.00 0.00 0.00 66 1015.4
20260508094546 21 133 1.6 6.4 0.00 0.00 0.00 67 1015.6
20260508093525 20 157 3.2 4.8 0.00 0.00 0.00 68 1015.7
20260508092526 20 132 1.6 6.4 0.00 0.00 0.00 69 1015.7
20260508091526 20 150 3.2 14.5 0.00 0.00 0.00 68 1015.8
20260508090525 19 106 0.0 3.2 0.00 0.00 0.00 71 1015.9
20260508085526 19 113 1.6 9.7 0.00 0.00 0.00 71 1015.9
20260508084525 18 113 3.2 6.4 0.00 0.00 0.00 72 1015.9
20260508083526 18 124 3.2 4.8 0.00 0.00 0.00 73 1015.9
20260508082525 17 171 0.0 3.2 0.00 0.00 0.00 76 1016.0
20260508081526 17 162 1.6 4.8 0.00 0.00 0.00 77 1016.1
20260508080525 16 132 1.6 4.8 0.00 0.00 0.00 80 1015.9
20260508075526 15 116 1.6 4.8 0.00 0.00 0.00 82 1016.1
20260508074546 15 120 0.0 3.2 0.00 0.00 0.00 82 1016.1
20260508073525 15 138 1.6 3.2 0.00 0.00 0.00 83 1016.2
20260508072526 15 133 1.6 3.2 0.00 0.00 0.00 82 1016.2
20260508071517 15 121 1.6 3.2 0.00 0.00 0.00 83 1016.2
20260508070516 14 124 3.2 11.3 0.00 0.00 0.00 84 1016.1
20260508065516 13 118 3.2 4.8 0.00 0.00 0.00 84 1016.2
20260508064516 13 110 1.6 3.2 0.00 0.00 0.00 85 1016.1
20260508063536 13 134 1.6 3.2 0.00 0.00 0.00 87 1016.2
20260508062536 12 119 1.6 3.2 0.00 0.00 0.00 88 1016.1
20260508061536 12 119 1.6 3.2 0.00 0.00 0.00 87 1016.0
20260508060516 12 125 1.6 3.2 0.00 0.00 0.00 87 1016.0
20260508055515 12 121 1.6 3.2 0.00 0.00 0.00 88 1015.9
20260508054516 12 143 1.6 3.2 0.00 0.00 0.00 90 1015.9
20260508053536 11 120 1.6 3.2 0.00 0.00 0.00 90 1015.8
20260508052535 11 117 1.6 3.2 0.00 0.00 0.00 91 1015.8
20260508051557 11 117 1.6 3.2 0.00 0.00 0.00 90 1015.8
20260508050516 11 114 3.2 3.2 0.00 0.00 0.00 89 1015.9
20260508045536 11 127 1.6 3.2 0.00 0.00 0.00 89 1015.9
20260508044516 11 122 1.6 3.2 0.00 0.00 0.00 90 1016.0
20260508043536 10 117 1.6 3.2 0.00 0.00 0.00 90 1016.1
20260508042517 10 120 1.6 3.2 0.00 0.00 0.00 91 1016.0
20260508041535 10 113 3.2 3.2 0.00 0.00 0.00 91 1015.9
20260508040516 10 124 3.2 3.2 0.00 0.00 0.00 91 1015.9
20260508035516 10 107 3.2 3.2 0.00 0.00 0.00 91 1015.8
20260508034517 10 108 1.6 3.2 0.00 0.00 0.00 91 1015.8
20260508033536 10 115 3.2 3.2 0.00 0.00 0.00 91 1015.7
20260508032536 10 107 1.6 3.2 0.00 0.00 0.00 91 1015.8
20260508031516 10 0.0 0.0 0.00 0.00 0.00 91 1015.7
20260508030538 10 0.0 0.0 0.00 0.00 0.00 91 1015.5
20260508025517 10 117 1.6 1.6 0.00 0.00 0.00 91 1015.4
20260508024517 10 117 1.6 3.2 0.00 0.00 0.00 90 1015.3
20260508023515 10 108 1.6 3.2 0.00 0.00 0.00 90 1015.3
20260508022516 10 120 1.6 3.2 0.00 0.00 0.00 90 1015.2
20260508021517 10 113 3.2 3.2 0.00 0.00 0.00 89 1015.2
20260508020521 10 113 1.6 3.2 0.00 0.00 0.00 89 1015.2
20260508015517 10 131 1.6 3.2 0.00 0.00 0.00 88 1014.9
20260508014536 10 114 1.6 3.2 0.00 0.00 0.00 88 1015.1
20260508013517 10 139 1.6 3.2 0.00 0.00 0.00 87 1015.1
20260508012517 11 124 1.6 3.2 0.00 0.00 0.00 87 1015.0
20260508011517 11 108 1.6 3.2 0.00 0.00 0.00 87 1015.1
20260508010516 11 119 1.6 3.2 0.00 0.00 0.00 87 1015.0
20260508005517 11 121 1.6 3.2 0.00 0.00 0.00 86 1015.0
20260508004556 11 119 1.6 3.2 0.00 0.00 0.00 86 1014.9
20260508003537 11 127 1.6 3.2 0.00 0.00 0.00 85 1014.9
20260508002517 11 110 3.2 3.2 0.00 0.00 0.00 85 1014.9
20260508001536 11 107 1.6 3.2 0.00 0.00 0.00 85 1015.0
20260508000516 11 110 3.2 6.4 0.00 0.00 0.00 84 1014.9